DO5RS-5 Weather Reports


time (UTC)temp
C
wind
direction
speed
KPH
gust
KPH
rain 1hr
cm
rain 24hr
cm
rain mn
cm
humidity
%
barometer
mb
20260906022905 15 0.0 0.0 0.00 0.00 0.00 69 1031.0
20260906021909 15 0.0 0.0 0.00 0.00 0.00 69 1030.8
20260906015904 15 0.0 0.0 0.00 0.00 0.00 69 1030.8
20260906014904 15 0.0 0.0 0.00 0.00 0.00 69 1030.7
20260906013904 15 0.0 0.0 0.00 0.00 0.00 69 1030.8
20260906012904 15 0.0 0.0 0.00 0.00 0.00 69 1030.7
20260906011904 15 0.0 0.0 0.00 0.00 0.00 69 1030.5
20260906010906 15 0.0 0.0 0.00 0.00 0.00 69 1030.5
20260906005907 16 0.0 0.0 0.00 0.00 0.00 69 1030.5
20260906004905 16 0.0 0.0 0.00 0.00 0.00 69 1030.4
20260906003905 16 0.0 0.0 0.00 0.00 0.00 69 1030.4
20260906002908 16 0.0 0.0 0.00 0.00 0.00 69 1030.3
20260906001906 16 0.0 0.0 0.00 0.00 0.00 69 1030.3
20260906000905 16 0.0 0.0 0.00 0.00 0.00 69 1030.4
20260905235907 16 0.0 0.0 0.00 0.00 0.00 69 1030.3
20260905234911 16 0.0 0.0 0.00 0.00 0.00 69 1030.3
20260905232905 16 0.0 0.0 0.00 0.00 0.00 69 1030.2
20260905231905 16 0.0 0.0 0.00 0.00 0.00 69 1030.1
20260905230905 16 0.0 0.0 0.00 0.00 0.00 68 1030.0
20260905225905 17 0.0 0.0 0.00 0.00 0.00 68 1029.8
20260905224906 17 0.0 0.0 0.00 0.00 0.00 68 1029.8
20260905223905 17 0.0 0.0 0.00 0.00 0.00 68 1029.7
20260905222909 17 0.0 0.0 0.00 0.00 0.00 67 1029.7
20260905215911 17 0.0 0.0 0.00 0.00 0.00 67 1029.4
20260905213905 17 0.0 0.0 0.00 0.00 0.00 66 1028.7
20260905212905 17 0.0 0.0 0.00 0.00 0.00 66 1029.1
20260905211905 18 0.0 0.0 0.00 0.00 0.00 66 1029.0
20260905210904 18 0.0 0.0 0.00 0.00 0.00 66 1029.0
20260905205905 18 0.0 0.0 0.00 0.00 0.00 65 1028.8
20260905204904 18 0.0 0.0 0.00 0.00 0.00 65 1028.6
20260905203909 18 0.0 0.0 0.00 0.00 0.00 64 1028.7
20260905201905 18 0.0 0.0 0.00 0.00 0.00 63 1028.6
20260905200904 18 0.0 0.0 0.00 0.00 0.00 62 1028.4
20260905195905 19 0.0 0.0 0.00 0.00 0.00 62 1028.3
20260905194907 19 0.0 0.0 0.00 0.00 0.00 61 1028.3
20260905193907 19 0.0 0.0 0.00 0.00 0.00 60 1028.2
20260905192904 19 0.0 0.0 0.00 0.00 0.00 60 1028.1
20260905191905 20 0.0 0.0 0.00 0.00 0.00 60 1028.0
20260905190905 20 0.0 0.0 0.00 0.00 0.00 60 1027.9
20260905185905 20 0.0 0.0 0.00 0.00 0.00 59 1027.7
20260905184906 20 0.0 0.0 0.00 0.00 0.00 58 1027.6
20260905183910 20 0.0 0.0 0.00 0.00 0.00 57 1027.6
20260905181909 20 0.0 0.0 0.00 0.00 0.00 56 1027.5
20260905175905 21 0.0 0.0 0.00 0.00 0.00 55 1026.9
20260905174909 21 0.0 0.0 0.00 0.00 0.00 53 1026.9
20260905172906 21 0.0 0.0 0.00 0.00 0.00 52 1026.6
20260905171909 21 0.0 0.0 0.00 0.00 0.00 51 1026.6
20260905165905 21 0.0 0.0 0.00 0.00 0.00 49 1026.5
20260905164906 22 0.0 0.0 0.00 0.00 0.00 47 1026.3
20260905163905 22 0.0 0.0 0.00 0.00 0.00 46 1026.3
20260905162908 22 0.0 0.0 0.00 0.00 0.00 45 1026.0
20260905160908 23 0.0 0.0 0.00 0.00 0.00 43 1025.6
20260905154906 23 0.0 0.0 0.00 0.00 0.00 43 1025.5
20260905153904 24 0.0 0.0 0.00 0.00 0.00 41 1025.4
20260905152904 23 0.0 0.0 0.00 0.00 0.00 43 1025.5
20260905151904 23 0.0 0.0 0.00 0.00 0.00 43 1025.3
20260905150904 26 0.0 0.0 0.00 0.00 0.00 39 1025.0
20260905145904 25 0.0 0.0 0.00 0.00 0.00 40 1025.0
20260905144904 25 0.0 0.0 0.00 0.00 0.00 42 1025.1
20260905143904 24 0.0 0.0 0.00 0.00 0.00 42 1025.2
20260905142905 24 0.0 0.0 0.00 0.00 0.00 41 1025.1
20260905141905 24 0.0 0.0 0.00 0.00 0.00 41 1025.2
20260905140904 23 0.0 0.0 0.00 0.00 0.00 44 1025.2
20260905135905 24 0.0 0.0 0.00 0.00 0.00 41 1025.1
20260905134911 24 0.0 0.0 0.00 0.00 0.00 40 1025.1
20260905131906 25 0.0 0.0 0.00 0.00 0.00 41 1024.8
20260905130905 23 0.0 0.0 0.00 0.00 0.00 44 1025.0
20260905125906 22 0.0 0.0 0.00 0.00 0.00 46 1025.1
20260905124905 22 0.0 0.0 0.00 0.00 0.00 47 1025.1
20260905123904 22 0.0 0.0 0.00 0.00 0.00 47 1025.0
20260905122905 22 0.0 0.0 0.00 0.00 0.00 47 1024.9
20260905121906 22 0.0 0.0 0.00 0.00 0.00 46 1024.8
20260905120906 22 0.0 0.0 0.00 0.00 0.00 47 1024.8
20260905115905 24 0.0 0.0 0.00 0.00 0.00 45 1024.4
20260905114905 23 0.0 0.0 0.00 0.00 0.00 47 1024.5
20260905113905 22 0.0 0.0 0.00 0.00 0.00 51 1024.7
20260905112907 22 0.0 0.0 0.00 0.00 0.00 53 1024.9
20260905111905 20 0.0 0.0 0.00 0.00 0.00 57 1025.0
20260905110904 20 0.0 0.0 0.00 0.00 0.00 57 1024.9
20260905105909 20 0.0 0.0 0.00 0.00 0.00 60 1025.1
20260905103905 20 0.0 0.0 0.00 0.00 0.00 60 1025.0
20260905102904 20 0.0 0.0 0.00 0.00 0.00 61 1024.8
20260905101905 20 0.0 0.0 0.00 0.00 0.00 62 1024.9
20260905100906 19 0.0 0.0 0.00 0.00 0.00 65 1024.8
20260905095911 19 0.0 0.0 0.00 0.00 0.00 65 1025.1
20260905094909 19 0.0 0.0 0.00 0.00 0.00 67 1024.9
20260905092905 18 0.0 0.0 0.00 0.00 0.00 75 1024.9
20260905091904 18 0.0 0.0 0.00 0.00 0.00 75 1024.8
20260905090904 18 0.0 0.0 0.00 0.00 0.00 77 1024.8
20260905085909 18 0.0 0.0 0.00 0.00 0.00 82 1024.8
20260905083904 17 0.0 0.0 0.00 0.00 0.00 86 1024.6
20260905082905 17 0.0 0.0 0.00 0.00 0.00 88 1024.6
20260905081905 17 0.0 0.0 0.00 0.00 0.00 89 1024.5
20260905080905 17 0.0 0.0 0.00 0.00 0.00 91 1024.4
20260905075903 17 0.0 0.0 0.00 0.00 0.00 93 1024.3
20260905074905 17 0.0 0.0 0.00 0.00 0.00 93 1024.1
20260905073905 17 0.0 0.0 0.00 0.00 0.00 94 1024.1
20260905072903 17 0.0 0.0 0.00 0.00 0.00 94 1023.9
20260905071906 17 0.0 0.0 0.00 0.00 0.00 93 1023.8
20260905070906 17 0.0 0.0 0.00 0.00 0.00 91 1023.9
20260905065904 17 0.0 0.0 0.00 0.00 0.00 90 1023.8
20260905064904 16 0.0 0.0 0.00 0.00 0.00 86 1023.8
20260905063904 16 0.0 0.0 0.00 0.00 0.00 85 1023.7
20260905062904 16 0.0 0.0 0.00 0.00 0.00 84 1023.5
20260905061904 16 0.0 0.0 0.00 0.00 0.00 82 1023.5
20260905060904 16 0.0 0.0 0.00 0.00 0.00 82 1023.5
20260905055904 16 0.0 0.0 0.00 0.00 0.00 82 1023.3
20260905054904 16 0.0 0.0 0.00 0.00 0.00 81 1023.4
20260905053909 16 0.0 0.0 0.00 0.00 0.00 81 1023.3
20260905051909 16 0.0 0.0 0.00 0.00 0.00 80 1022.9
20260905045904 16 0.0 0.0 0.00 0.00 0.00 80 1022.5
20260905044904 16 0.0 0.0 0.00 0.00 0.00 81 1022.3
20260905043909 16 0.0 0.0 0.00 0.00 0.00 80 1022.1
20260905041907 16 0.0 0.0 0.00 0.00 0.00 81 1021.8
20260905040911 16 0.0 0.0 0.00 0.00 0.00 81 1021.9
20260905034906 17 0.0 0.0 0.00 0.00 0.00 81 1021.8
20260905033907 17 0.0 0.0 0.00 0.00 0.00 81 1021.8
20260905032910 17 0.0 0.0 0.00 0.00 0.00 82 1021.8
20260905030905 17 0.0 0.0 0.00 0.00 0.00 83 1021.5
20260905025904 17 0.0 0.0 0.00 0.00 0.00 82 1021.4
20260905024906 17 0.0 0.0 0.00 0.00 0.00 83 1021.3
20260905023905 17 0.0 0.0 0.00 0.00 0.00 83 1021.3